Simultaneous Nadir Overpasses (SNOs) Predictions

Prediction of SNOs between GOES-16 and METOP-B Satellite Orbit:

Table of predicted SNOs for the next 14.0 days since TLE Epoch: 6/5/2020
Index Date Time (GOES-16) GOES-16 Lat,Lon METOP-B Lat,Lon Distance(km) Time Diff (sec)
1 06/06/2020 14:27:43 0.02, -75.17 -0.23, -74.02 130.75 80
2 06/08/2020 02:46:43 -0.02, -75.14 -0.79, -78.62 395.78 80
3 06/09/2020 02:23:24 -0.02, -75.15 0.33, -73.63 173.44 80
4 06/10/2020 14:42:15 0.02, -75.17 0.66, -78.19 343.19 80
5 06/11/2020 14:24:15 0.01, -75.18 -0.40, -73.18 226.70 80
6 06/13/2020 02:43:15 -0.01, -75.17 -0.61, -77.78 298.09 80
7 06/14/2020 02:19:55 -0.01, -75.18 0.52, -72.79 272.16 80
8 06/15/2020 14:38:47 0.01, -75.22 0.48, -77.35 243.18 80
9 06/16/2020 14:20:47 0.01, -75.23 -0.64, -72.36 327.47 80
10 06/18/2020 02:39:47 -0.00, -75.23 -0.41, -76.95 196.23 80
11 06/19/2020 02:16:27 -0.00, -75.25 0.72, -71.96 374.46 80




NCC Satellite Simultaneous Nadir Overpasses (SNOs) Prediction Service
